Location: Kourou
(5.1597°N, 52.6503°W)
Time: 15:16:16
(UTC-03:00)

ISS - Visible Passes

Search period start: 08 December 2021 00:00
Search period end: 18 December 2021 00:00
Orbit: 417 x 422 km, 51.6° (Epoch: 08 December)

Date Brightness Start Highest point End Pass type
(mag) Time Alt. Az. Time Alt. Az. Time Alt. Az.
09 Dec -2.1 19:41:24 10° NNW 19:42:56 24° NNW 19:42:56 24° NNW visible
10 Dec -2.8 18:54:27 10° N 18:57:21 27° NE 19:00:15 10° ESE visible
11 Dec -1.0 19:43:59 10° WNW 19:46:35 21° SW 19:49:11 10° S visible
12 Dec -2.6 18:55:59 10° NW 18:59:14 47° SW 19:02:30 10° SSE visible
14 Dec -0.4 05:48:26 10° SSE 05:50:29 15° SE 05:52:31 10° E visible
16 Dec -3.8 05:48:57 10° SW 05:52:18 86° ESE 05:55:38 10° NE visible
17 Dec -2.0 05:01:51 10° SSW 05:04:55 33° SE 05:07:59 10° ENE visible
